SJ-6C                   
1 29505U 06046A   19260.47145093  .00000506  00000-0  51953-4 0  9996
2 29505  97.8260 270.0417 0001900 326.8304  33.2798 14.94741544702680
SJ-6D                   
1 29506U 06046B   19260.51423763  .00000238  00000-0  28086-4 0  9998
2 29506  97.8454 270.0496 0001444 354.9554   5.1664 14.93463009702287
CZ-4B R/B               
1 29507U 06046C   19260.08289052 -.00000001  00000-0  49557-5 0  9998
2 29507  97.7767 277.7035 0047743   7.4002 352.7916 15.00535038704270
CZ-4B DEB               
1 29509U 06046E   19259.60558311  .00000412  00000-0  44005-4 0  9990
2 29509  97.9714 277.7379 0044662 176.5437 183.6100 14.93719051699565
CZ-4 DEB                
1 35374U 06046G   19259.89984511  .00000548  00000-0  23222-4 0  9991
2 35374  97.3976 289.7504 0055019 262.2585  97.2404 15.26265553709428
CZ-4 DEB                
1 35375U 06046H   19259.30082354  .00000124  00000-0  14906-4 0  9991
2 35375  97.8569 279.7551 0044435  50.5409   5.0301 14.99860752700825
CZ-4 DEB                
1 35376U 06046J   19259.90669160  .00000344  00000-0  73104-4 0  9993
2 35376  97.7073 293.0046 0197357  59.7342  61.2574 14.53208332679003
CZ-4 DEB                
1 35378U 06046L   19259.55487361  .00000431  00000-0  81434-4 0  9999
2 35378  97.8886  18.8437 0168982 275.0519  83.1414 14.60870950677032